Regional Weather Roundup
Issued by NWS State College, PA

Home | Current Version | Previous Version | Text Only | Print | Product List | Glossary Off
Versions: 1 2 3 4 5 6 7 8 9 10 11 12 13 14 15 16 17 18 19 20 21 22 23 24 25 26 27 28 29 30 31 32 33 34 35 36 37 38 39 40 41 42 43 44 45 46 47 48 49 50

000
ASUS41 KCTP 290510
RWRCTP

REGIONAL WEATHER ROUNDUP
NATIONAL WEATHER SERVICE STATE COLLEGE PA
100 AM EDT SUN MAR 29 2015

Note: "fair" indicates few or no clouds below 12,000 feet with no
significant weather and/or obstructions to visibility.

* = STATION THAT DOES NOT REPORT PRECIPITATION /E.G. RAIN...SNOW...ETC/
    THUNDER OR FOG.

PAZ002>004-007>009-013>016-020>023-029>032-290600-
WESTERN PENNSYLVANIA

CITY           SKY/WX    TMP DP  RH WIND       PRES   REMARKS
ERIE           CLEAR     20  11  68 SW3       30.30R
MEADVILLE      CLEAR     17  10  74 W6        30.25R WCI   9
FRANKLIN*      CLEAR     16   7  67 W6        30.26R WCI   7
NEW CASTLE     FAIR      17  10  74 CALM      30.31R
BEAVER COUNTY  NOT AVBL
BUTLER*        CLEAR     16   7  67 CALM      30.28F
PITTSBURGH INT CLEAR     19   8  62 W5        30.28S WCI  12
PITTSBURGH     CLEAR     20   3  48 W6        30.27S WCI  12
INDIANA*       CLEAR     18   7  62 W5        30.29S WCI  11
LATROBE        CLEAR     16   7  67 CALM      30.31R
WASHINGTON CO* CLEAR     16   9  73 CALM      30.30S
$$

PAZ004>006-010>012-017>019-024>028-033>037-041-042-045-046-049>053-290600-
CENTRAL PENNSYLVANIA

CITY           SKY/WX    TMP DP  RH WIND       PRES   REMARKS
BRADFORD       CLEAR     14   7  73 W8        30.15S WCI   3
DUBOIS         CLEAR     16   6  65 W7        30.19S WCI   6
CLEARFIELD     CLEAR     17   6  62 W6        30.21S WCI   9
JOHNSTOWN      CLEAR     15   4  61 NW10      30.16S WCI   2
ALTOONA        CLEAR     19   5  54 NW8       30.22S WCI   9
STATE COLLEGE  CLEAR     20   6  52 W8        30.22S WCI  11
WILLIAMSPORT   CLEAR     22   5  48 W6        30.23R WCI  14
SELINSGROVE    CLEAR     22   9  57 CALM      30.24R
FT INDIANTOWN  CLEAR     25   1  35 VRB7      30.21S
CAPITAL CITY   CLEAR     26   3  37 NW9       30.24R
HARRISBURG     CLEAR     26   4  38 NW10      30.23S
YORK           CLEAR     25   5  42 NW9G24    30.23R
$$

PAZ038>040-043-044-047-048-054-055-060>062-067>071-290600-
EASTERN PENNSYLVANIA

CITY           SKY/WX    TMP DP  RH WIND       PRES   REMARKS
SCRANTON       CLEAR     20   4  50 N6        30.16S WCI  12
MOUNT POCONO   CLOUDY    17   3  54 NW16G26   30.04S WCI   2
ALLENTOWN      CLOUDY    26   6  42 NW13      30.18S WCI  15
QUAKERTOWN*    MOCLDY    23   5  46 N10       30.17S WCI  12
READING        CLOUDY    26   3  37 NW14      30.19F WCI  14
LANCASTER      CLOUDY    25   3  38 N13       30.21R WCI  14
COATESVILLE    PTCLDY    25   5  42 N17       30.18R WCI  11
POTTSTOWN      PTCLDY    24   4  42 NW10      30.19S WCI  14
BLUE BELL      CLEAR     27   9  46 NW6       30.17S
DOYLESTOWN     CLEAR     22   6  50 N9        30.15S WCI  12
WILLOW GROVE   NOT AVBL
NORTH PHILA    CLOUDY    27   5  39 NW9G18    30.19R
PHILADELPHIA   MOCLDY    27   5  39 N17G29    30.20R WCI  14
$$


USA.gov is the U.S. government's official web portal to all federal, state and local government web resources and services.